| time (UTC) | temp F | wind direction | speed knots | gust knots | rain 1hr in | rain 24hr in | rain mn in | humidity % | barometer mb |
| 20260510132453 | 64 | 37 | 0.9 | 1.7 | 0.00 | 0.00 | 0.00 | 79 | 1016.0 |
| 20260510131949 | 63 | 206 | 0.0 | 0.0 | 0.00 | 0.00 | 0.00 | 81 | 1016.2 |
| 20260510131447 | 62 | 154 | 0.0 | 0.0 | 0.00 | 0.00 | 0.00 | 85 | 1015.9 |
| 20260510130944 | 62 | 215 | 0.0 | 0.0 | 0.00 | 0.00 | 0.00 | 87 | 1015.9 |
| 20260510130440 | 61 | 219 | 0.0 | 0.0 | 0.00 | 0.00 | 0.00 | 89 | 1015.9 |
| 20260510125938 | 61 | 215 | 0.0 | 0.0 | 0.00 | 0.00 | 0.00 | 89 | 1015.9 |
| 20260510125434 | 60 | 218 | 0.0 | 0.0 | 0.00 | 0.00 | 0.00 | 91 | 1015.7 |
| 20260510124931 | 60 | 218 | 0.0 | 0.0 | 0.00 | 0.00 | 0.00 | 94 | 1015.9 |
| 20260510124427 | 58 | 217 | 0.0 | 0.0 | 0.00 | 0.00 | 0.00 | 95 | 1015.7 |
| 20260510123924 | 58 | 223 | 0.0 | 0.0 | 0.00 | 0.00 | 0.00 | 97 | 1015.6 |
| 20260510123419 | 57 | 224 | 0.0 | 0.0 | 0.00 | 0.00 | 0.00 | 97 | 1015.8 |
| 20260510122916 | 56 | 224 | 0.0 | 0.0 | 0.00 | 0.00 | 0.00 | 98 | 1015.6 |
| 20260510122410 | 56 | 224 | 0.0 | 0.0 | 0.00 | 0.00 | 0.00 | 98 | 1015.8 |
| 20260510121907 | 56 | 224 | 0.0 | 0.0 | 0.00 | 0.00 | 0.00 | 98 | 1015.8 |
| 20260510121405 | 56 | 224 | 0.0 | 0.0 | 0.00 | 0.00 | 0.00 | 98 | 1015.7 |
| 20260510120902 | 56 | 225 | 0.0 | 0.0 | 0.00 | 0.00 | 0.00 | 99 | 1015.5 |
| 20260510120359 | 55 | 219 | 0.0 | 0.0 | 0.00 | 0.00 | 0.00 | 99 | 1015.4 |
| 20260510115855 | 55 | 219 | 0.0 | 0.0 | 0.00 | 0.00 | 0.00 | 99 | 1015.5 |
| 20260510115352 | 54 | 223 | 0.0 | 0.0 | 0.00 | 0.00 | 0.00 | 99 | 1015.1 |
| 20260510114847 | 53 | 176 | 0.0 | 0.0 | 0.00 | 0.00 | 0.00 | 99 | 1015.2 |
| 20260510114345 | 53 | 174 | 0.0 | 0.0 | 0.00 | 0.00 | 0.00 | 99 | 1015.3 |
| 20260510113845 | 52 | 146 | 0.0 | 0.0 | 0.00 | 0.00 | 0.00 | 99 | 1015.1 |
| 20260510113341 | 52 | 146 | 0.0 | 0.0 | 0.00 | 0.00 | 0.00 | 99 | 1014.9 |
| 20260510112838 | 52 | 146 | 0.0 | 0.0 | 0.00 | 0.00 | 0.00 | 99 | 1015.1 |
| 20260510112336 | 51 | 146 | 0.0 | 0.0 | 0.00 | 0.00 | 0.00 | 99 | 1014.7 |
| 20260510111831 | 51 | 146 | 0.0 | 0.0 | 0.00 | 0.00 | 0.00 | 99 | 1014.6 |
| 20260510111328 | 49 | 146 | 0.0 | 0.0 | 0.00 | 0.00 | 0.00 | 99 | 1014.6 |
| 20260510110828 | 48 | 146 | 0.0 | 0.0 | 0.00 | 0.00 | 0.00 | 99 | 1014.5 |
| 20260510110326 | 48 | 146 | 0.0 | 0.0 | 0.00 | 0.00 | 0.00 | 99 | 1014.3 |
| 20260510105821 | 47 | 146 | 0.0 | 0.0 | 0.00 | 0.00 | 0.00 | 99 | 1014.3 |
| 20260510105316 | 46 | 146 | 0.0 | 0.0 | 0.00 | 0.00 | 0.00 | 99 | 1014.1 |
| 20260510104812 | 46 | 146 | 0.0 | 0.0 | 0.00 | 0.00 | 0.00 | 99 | 1014.1 |
| 20260510104310 | 46 | 146 | 0.0 | 0.0 | 0.00 | 0.00 | 0.00 | 99 | 1014.1 |
| 20260510103806 | 46 | 146 | 0.0 | 0.0 | 0.00 | 0.00 | 0.00 | 99 | 1013.9 |
| 20260510103303 | 45 | 146 | 0.0 | 0.0 | 0.00 | 0.00 | 0.00 | 99 | 1014.0 |
| 20260510102803 | 45 | 146 | 0.0 | 0.0 | 0.00 | 0.00 | 0.00 | 99 | 1013.7 |
| 20260510102259 | 46 | 146 | 0.0 | 0.0 | 0.00 | 0.00 | 0.00 | 99 | 1013.6 |
| 20260510101756 | 46 | 146 | 0.0 | 0.0 | 0.00 | 0.00 | 0.00 | 99 | 1013.7 |
| 20260510101255 | 46 | 146 | 0.0 | 0.0 | 0.00 | 0.00 | 0.00 | 99 | 1013.6 |
| 20260510100750 | 46 | 146 | 0.0 | 0.0 | 0.00 | 0.00 | 0.00 | 99 | 1013.6 |
| 20260510100249 | 46 | 146 | 0.0 | 0.0 | 0.00 | 0.00 | 0.00 | 99 | 1013.5 |
| 20260510095749 | 46 | 146 | 0.0 | 0.0 | 0.00 | 0.00 | 0.00 | 99 | 1013.3 |
| 20260510095245 | 46 | 157 | 0.0 | 0.0 | 0.00 | 0.00 | 0.00 | 99 | 1013.3 |
| 20260510094744 | 46 | 157 | 0.0 | 0.0 | 0.00 | 0.00 | 0.00 | 99 | 1013.2 |
| 20260510094240 | 46 | 157 | 0.0 | 0.0 | 0.00 | 0.00 | 0.00 | 99 | 1013.1 |
| 20260510093736 | 46 | 157 | 0.0 | 0.0 | 0.00 | 0.00 | 0.00 | 99 | 1012.9 |
| 20260510093233 | 47 | 157 | 0.0 | 0.0 | 0.00 | 0.00 | 0.00 | 99 | 1013.2 |
| 20260510092729 | 47 | 158 | 0.0 | 0.0 | 0.00 | 0.00 | 0.00 | 99 | 1013.3 |
| 20260510092225 | 47 | 157 | 0.0 | 0.0 | 0.00 | 0.00 | 0.00 | 99 | 1013.0 |
| 20260510091721 | 46 | 158 | 0.0 | 0.0 | 0.00 | 0.00 | 0.00 | 99 | 1013.0 |
| 20260510091218 | 46 | 157 | 0.0 | 0.0 | 0.00 | 0.00 | 0.00 | 99 | 1013.1 |
| 20260510090714 | 47 | 158 | 0.0 | 0.0 | 0.00 | 0.00 | 0.00 | 99 | 1013.0 |
| 20260510090211 | 47 | 158 | 0.0 | 0.0 | 0.00 | 0.00 | 0.00 | 99 | 1013.0 |
| 20260510085706 | 47 | 158 | 0.0 | 0.0 | 0.00 | 0.00 | 0.00 | 99 | 1013.1 |
| 20260510085202 | 47 | 157 | 0.0 | 0.0 | 0.00 | 0.00 | 0.00 | 99 | 1012.9 |
| 20260510084658 | 47 | 158 | 0.0 | 0.0 | 0.00 | 0.00 | 0.00 | 98 | 1012.8 |
| 20260510084154 | 47 | 157 | 0.0 | 0.0 | 0.00 | 0.00 | 0.00 | 98 | 1012.9 |
| 20260510083652 | 47 | 157 | 0.0 | 0.0 | 0.00 | 0.00 | 0.00 | 98 | 1013.0 |
| 20260510083148 | 47 | 187 | 0.0 | 0.0 | 0.00 | 0.00 | 0.00 | 98 | 1012.9 |
| 20260510082644 | 47 | 170 | 0.0 | 0.0 | 0.00 | 0.00 | 0.00 | 98 | 1012.7 |
| 20260510082140 | 47 | 170 | 0.0 | 0.0 | 0.00 | 0.00 | 0.00 | 98 | 1012.7 |
| 20260510081635 | 47 | 170 | 0.0 | 0.0 | 0.00 | 0.00 | 0.00 | 98 | 1012.7 |
| 20260510081131 | 47 | 191 | 0.0 | 0.0 | 0.00 | 0.00 | 0.00 | 98 | 1012.9 |
| 20260510080630 | 47 | 191 | 0.0 | 0.0 | 0.00 | 0.00 | 0.00 | 98 | 1012.7 |
| 20260510080127 | 47 | 191 | 0.0 | 0.0 | 0.00 | 0.00 | 0.00 | 98 | 1012.5 |
| 20260510075625 | 48 | 191 | 0.0 | 0.0 | 0.00 | 0.00 | 0.00 | 98 | 1012.6 |
| 20260510075122 | 48 | 191 | 0.0 | 0.0 | 0.00 | 0.00 | 0.00 | 98 | 1012.4 |
| 20260510074619 | 48 | 191 | 0.0 | 0.0 | 0.00 | 0.00 | 0.00 | 98 | 1012.6 |
| 20260510074114 | 48 | 191 | 0.0 | 0.0 | 0.00 | 0.00 | 0.00 | 98 | 1012.5 |
| 20260510073611 | 48 | 191 | 0.0 | 0.0 | 0.00 | 0.00 | 0.00 | 98 | 1012.5 |
| 20260510073108 | 48 | 191 | 0.0 | 0.0 | 0.00 | 0.00 | 0.00 | 98 | 1012.5 |
| 20260510072605 | 48 | 192 | 0.0 | 0.0 | 0.00 | 0.00 | 0.00 | 98 | 1012.6 |
| 20260510072101 | 48 | 191 | 0.0 | 0.0 | 0.00 | 0.00 | 0.00 | 98 | 1012.6 |
| 20260510071557 | 49 | 191 | 0.0 | 0.0 | 0.00 | 0.00 | 0.00 | 98 | 1012.7 |
| 20260510071055 | 49 | 191 | 0.0 | 0.0 | 0.00 | 0.00 | 0.00 | 98 | 1012.5 |
| 20260510070551 | 49 | 192 | 0.0 | 0.0 | 0.00 | 0.00 | 0.00 | 98 | 1012.4 |
| 20260510070049 | 48 | 186 | 0.0 | 0.0 | 0.00 | 0.00 | 0.00 | 97 | 1012.7 |
| 20260510065545 | 49 | 186 | 0.0 | 0.0 | 0.00 | 0.00 | 0.00 | 97 | 1012.4 |
| 20260510065041 | 49 | 186 | 0.0 | 0.0 | 0.00 | 0.00 | 0.00 | 97 | 1012.5 |
| 20260510064537 | 49 | 186 | 0.0 | 0.0 | 0.00 | 0.00 | 0.00 | 97 | 1012.4 |
| 20260510064034 | 49 | 186 | 0.0 | 0.0 | 0.00 | 0.00 | 0.00 | 97 | 1012.5 |
| 20260510063531 | 49 | 186 | 0.0 | 0.0 | 0.00 | 0.00 | 0.00 | 97 | 1012.6 |
| 20260510063028 | 49 | 186 | 0.0 | 0.0 | 0.00 | 0.00 | 0.00 | 97 | 1012.6 |
| 20260510062524 | 50 | 191 | 0.0 | 0.0 | 0.00 | 0.00 | 0.00 | 97 | 1012.5 |
| 20260510062019 | 50 | 175 | 0.0 | 0.0 | 0.00 | 0.00 | 0.00 | 97 | 1012.6 |
| 20260510061516 | 50 | 176 | 0.0 | 0.0 | 0.00 | 0.00 | 0.00 | 97 | 1012.6 |
| 20260510061013 | 50 | 176 | 0.0 | 0.0 | 0.00 | 0.00 | 0.00 | 97 | 1012.7 |
| 20260510060509 | 50 | 159 | 0.0 | 0.0 | 0.00 | 0.00 | 0.00 | 96 | 1012.6 |
| 20260510060006 | 50 | 157 | 0.0 | 0.0 | 0.00 | 0.00 | 0.00 | 96 | 1012.8 |
| 20260510055501 | 50 | 157 | 0.0 | 0.0 | 0.00 | 0.00 | 0.00 | 96 | 1012.6 |
| 20260510055000 | 50 | 166 | 0.0 | 0.0 | 0.00 | 0.00 | 0.00 | 96 | 1012.6 |
| 20260510054455 | 51 | 156 | 0.0 | 0.0 | 0.00 | 0.00 | 0.00 | 96 | 1012.7 |
| 20260510053950 | 51 | 143 | 0.0 | 0.0 | 0.00 | 0.00 | 0.00 | 95 | 1012.6 |
| 20260510053445 | 51 | 185 | 0.0 | 0.0 | 0.00 | 0.00 | 0.00 | 95 | 1012.7 |
| 20260510052942 | 51 | 186 | 0.0 | 0.9 | 0.00 | 0.00 | 0.00 | 95 | 1012.8 |
| 20260510052438 | 51 | 205 | 0.0 | 0.9 | 0.00 | 0.00 | 0.00 | 94 | 1012.8 |
| 20260510051934 | 51 | 173 | 0.0 | 0.0 | 0.00 | 0.00 | 0.00 | 94 | 1012.6 |
| 20260510051431 | 52 | 173 | 0.0 | 0.0 | 0.00 | 0.00 | 0.00 | 93 | 1012.8 |
| 20260510050927 | 52 | 150 | 0.0 | 0.0 | 0.00 | 0.00 | 0.00 | 93 | 1012.7 |
| 20260510050424 | 53 | 150 | 0.0 | 0.0 | 0.00 | 0.00 | 0.00 | 92 | 1012.9 |
| 20260510045921 | 53 | 122 | 0.0 | 0.0 | 0.00 | 0.00 | 0.00 | 92 | 1012.8 |
| 20260510045418 | 53 | 196 | 0.0 | 0.0 | 0.00 | 0.00 | 0.00 | 91 | 1012.8 |
| 20260510044915 | 54 | 195 | 0.0 | 0.0 | 0.00 | 0.00 | 0.00 | 90 | 1012.9 |
| 20260510044412 | 55 | 196 | 0.0 | 0.0 | 0.00 | 0.00 | 0.00 | 89 | 1012.7 |
| 20260510043909 | 55 | 190 | 0.0 | 0.0 | 0.00 | 0.00 | 0.00 | 89 | 1012.7 |
| 20260510043404 | 56 | 186 | 0.0 | 0.0 | 0.00 | 0.00 | 0.00 | 89 | 1012.8 |
| 20260510042903 | 56 | 141 | 0.0 | 0.0 | 0.00 | 0.00 | 0.00 | 89 | 1012.7 |
| 20260510042358 | 56 | 136 | 0.0 | 0.0 | 0.00 | 0.00 | 0.00 | 90 | 1013.0 |
| 20260510041854 | 55 | 251 | 0.0 | 0.0 | 0.00 | 0.00 | 0.00 | 93 | 1012.5 |
| 20260510041352 | 55 | 242 | 0.0 | 0.9 | 0.00 | 0.00 | 0.00 | 95 | 1012.6 |
| 20260510040849 | 55 | 180 | 0.0 | 0.0 | 0.00 | 0.00 | 0.00 | 96 | 1012.7 |
| 20260510040346 | 54 | 21 | 0.0 | 0.9 | 0.00 | 0.16 | 0.16 | 97 | 1012.7 |
| 20260510035841 | 53 | 281 | 0.0 | 1.7 | 0.00 | 0.16 | 0.16 | 97 | 1012.4 |
| 20260510035337 | 53 | 191 | 0.0 | 0.9 | 0.00 | 0.16 | 0.16 | 97 | 1012.5 |
| 20260510034833 | 53 | 96 | 0.0 | 0.9 | 0.00 | 0.16 | 0.16 | 97 | 1012.6 |
| 20260510034331 | 52 | 250 | 0.9 | 0.9 | 0.00 | 0.16 | 0.16 | 97 | 1012.6 |
| 20260510033827 | 52 | 109 | 0.0 | 0.0 | 0.00 | 0.16 | 0.16 | 97 | 1012.5 |
| 20260510033324 | 52 | 194 | 0.0 | 0.9 | 0.00 | 0.16 | 0.16 | 97 | 1012.3 |
| 20260510032821 | 52 | 135 | 0.0 | 0.0 | 0.00 | 0.16 | 0.16 | 97 | 1012.6 |
| 20260510032318 | 52 | 159 | 0.0 | 0.9 | 0.00 | 0.16 | 0.16 | 97 | 1012.4 |
| 20260510031813 | 51 | 142 | 0.0 | 0.0 | 0.00 | 0.16 | 0.16 | 97 | 1012.1 |
| 20260510031309 | 52 | 174 | 0.0 | 0.0 | 0.00 | 0.16 | 0.16 | 97 | 1012.1 |
| 20260510030803 | 51 | 177 | 0.0 | 0.0 | 0.00 | 0.16 | 0.16 | 97 | 1012.0 |
| 20260510030300 | 51 | 167 | 0.0 | 0.0 | 0.00 | 0.16 | 0.16 | 97 | 1012.0 |
| 20260510025758 | 51 | 190 | 0.0 | 0.0 | 0.00 | 0.16 | 0.16 | 97 | 1012.1 |
| 20260510025255 | 51 | 181 | 0.0 | 0.0 | 0.00 | 0.16 | 0.16 | 96 | 1012.2 |
| 20260510024751 | 52 | 67 | 0.0 | 0.0 | 0.00 | 0.16 | 0.16 | 96 | 1012.4 |
| 20260510024248 | 52 | 62 | 0.0 | 0.0 | 0.00 | 0.16 | 0.16 | 96 | 1012.3 |
| 20260510023744 | 52 | 61 | 0.0 | 0.0 | 0.00 | 0.16 | 0.16 | 96 | 1011.9 |
| 20260510023241 | 52 | 146 | 0.0 | 0.0 | 0.00 | 0.16 | 0.16 | 96 | 1012.1 |
| 20260510022738 | 52 | 147 | 0.0 | 0.0 | 0.00 | 0.16 | 0.16 | 96 | 1012.1 |
| 20260510022237 | 53 | 175 | 0.0 | 0.0 | 0.00 | 0.16 | 0.16 | 95 | 1011.9 |
| 20260510021726 | 53 | 170 | 0.0 | 0.0 | 0.00 | 0.16 | 0.16 | 95 | 1011.9 |
| 20260510021225 | 53 | 170 | 0.0 | 0.0 | 0.00 | 0.16 | 0.16 | 95 | 1012.0 |
| 20260510020724 | 53 | 170 | 0.0 | 0.0 | 0.00 | 0.16 | 0.16 | 95 | 1012.1 |
| 20260510020220 | 53 | 156 | 0.0 | 0.0 | 0.00 | 0.16 | 0.16 | 94 | 1011.8 |
| 20260510015716 | 53 | 131 | 0.0 | 0.0 | 0.00 | 0.16 | 0.16 | 94 | 1011.9 |
| 20260510015213 | 54 | 131 | 0.0 | 0.0 | 0.00 | 0.16 | 0.16 | 94 | 1011.5 |
| 20260510014708 | 54 | 131 | 0.0 | 0.0 | 0.00 | 0.16 | 0.16 | 93 | 1011.7 |
| 20260510014205 | 54 | 131 | 0.0 | 0.0 | 0.00 | 0.16 | 0.16 | 93 | 1011.5 |
| 20260510013700 | 54 | 133 | 0.0 | 0.0 | 0.00 | 0.16 | 0.16 | 92 | 1011.5 |
| 20260510013156 | 55 | 133 | 0.0 | 0.0 | 0.00 | 0.16 | 0.16 | 92 | 1011.4 |
| 20260510012655 | 55 | 133 | 0.0 | 0.0 | 0.00 | 0.16 | 0.16 | 92 | 1011.3 |
| 20260510012151 | 55 | 130 | 0.0 | 0.0 | 0.00 | 0.16 | 0.16 | 91 | 1011.3 |
| 20260510011646 | 56 | 56 | 0.0 | 0.0 | 0.00 | 0.16 | 0.16 | 89 | 1011.1 |
| 20260510011143 | 56 | 56 | 0.0 | 0.0 | 0.00 | 0.16 | 0.16 | 88 | 1011.2 |
| 20260510010638 | 57 | 56 | 0.0 | 0.0 | 0.00 | 0.16 | 0.16 | 88 | 1010.9 |
| 20260510010136 | 57 | 55 | 0.0 | 0.0 | 0.00 | 0.16 | 0.16 | 87 | 1010.9 |
| 20260510005631 | 58 | 55 | 0.0 | 0.0 | 0.00 | 0.16 | 0.16 | 85 | 1010.8 |
| 20260510005129 | 59 | 57 | 0.0 | 0.0 | 0.00 | 0.16 | 0.16 | 83 | 1010.9 |
| 20260510004627 | 59 | 57 | 0.0 | 0.0 | 0.00 | 0.16 | 0.16 | 81 | 1010.6 |
| 20260510004125 | 60 | 128 | 0.0 | 0.0 | 0.00 | 0.16 | 0.16 | 78 | 1010.7 |
| 20260510003622 | 61 | 121 | 0.0 | 0.0 | 0.00 | 0.16 | 0.16 | 75 | 1010.6 |
| 20260510003117 | 62 | 178 | 0.0 | 0.0 | 0.00 | 0.16 | 0.16 | 71 | 1010.5 |
| 20260510002612 | 63 | 98 | 0.0 | 0.0 | 0.00 | 0.16 | 0.16 | 69 | 1010.4 |
| 20260510002110 | 64 | 156 | 0.0 | 0.9 | 0.00 | 0.16 | 0.16 | 66 | 1010.3 |
| 20260510001607 | 65 | 104 | 0.0 | 0.9 | 0.00 | 0.16 | 0.16 | 66 | 1010.3 |
| 20260510001106 | 66 | 78 | 0.0 | 0.0 | 0.00 | 0.16 | 0.16 | 64 | 1010.3 |
| 20260510000605 | 67 | 94 | 0.0 | 0.0 | 0.00 | 0.16 | 0.16 | 61 | 1010.5 |
| 20260509235559 | 69 | 47 | 0.0 | 0.0 | 0.00 | 0.16 | 0.16 | 59 | 1010.4 |
| 20260509235056 | 69 | 57 | 0.0 | 0.0 | 0.00 | 0.16 | 0.16 | 59 | 1010.4 |
| 20260509234552 | 69 | 205 | 0.0 | 0.9 | 0.00 | 0.16 | 0.16 | 59 | 1010.3 |
| 20260509234050 | 69 | 36 | 0.9 | 0.9 | 0.00 | 0.16 | 0.16 | 59 | 1010.3 |
| 20260509233547 | 69 | 307 | 0.0 | 2.6 | 0.00 | 0.16 | 0.16 | 57 | 1010.0 |
| 20260509233044 | 71 | 42 | 1.7 | 3.5 | 0.00 | 0.16 | 0.16 | 54 | 1009.9 |
| 20260509232541 | 70 | 34 | 0.9 | 0.9 | 0.00 | 0.16 | 0.16 | 57 | 1009.9 |
| 20260509232038 | 70 | 23 | 1.7 | 1.7 | 0.00 | 0.16 | 0.16 | 56 | 1010.2 |
| 20260509231534 | 70 | 25 | 0.9 | 5.2 | 0.00 | 0.16 | 0.16 | 57 | 1010.0 |
| 20260509231032 | 70 | 239 | 0.9 | 7.0 | 0.00 | 0.16 | 0.16 | 56 | 1009.9 |
| 20260509230528 | 70 | 92 | 1.7 | 2.6 | 0.00 | 0.16 | 0.16 | 55 | 1009.9 |
| 20260509230026 | 69 | 352 | 2.6 | 3.5 | 0.00 | 0.16 | 0.16 | 57 | 1009.9 |
| 20260509225521 | 70 | 233 | 0.9 | 2.6 | 0.00 | 0.16 | 0.16 | 57 | 1010.0 |
| 20260509225017 | 71 | 123 | 0.0 | 2.6 | 0.00 | 0.16 | 0.16 | 56 | 1010.2 |
| 20260509224512 | 72 | 94 | 0.0 | 0.9 | 0.00 | 0.16 | 0.16 | 55 | 1010.2 |
| 20260509224009 | 71 | 30 | 1.7 | 5.2 | 0.00 | 0.16 | 0.16 | 53 | 1010.4 |
| 20260509223506 | 72 | 46 | 3.5 | 6.1 | 0.00 | 0.16 | 0.16 | 53 | 1010.3 |
| 20260509223005 | 72 | 47 | 4.3 | 8.7 | 0.00 | 0.16 | 0.16 | 52 | 1010.3 |
| 20260509222459 | 72 | 102 | 0.0 | 1.7 | 0.00 | 0.16 | 0.16 | 56 | 1010.3 |
| 20260509221955 | 71 | 34 | 0.9 | 3.5 | 0.00 | 0.16 | 0.16 | 57 | 1010.4 |
| 20260509221451 | 71 | 101 | 3.5 | 7.0 | 0.00 | 0.16 | 0.16 | 52 | 1010.5 |
| 20260509220948 | 71 | 198 | 1.7 | 8.7 | 0.00 | 0.16 | 0.16 | 53 | 1010.5 |
| 20260509220444 | 71 | 34 | 0.9 | 7.0 | 0.00 | 0.16 | 0.16 | 54 | 1010.6 |
| 20260509215940 | 72 | 234 | 0.0 | 5.2 | 0.00 | 0.16 | 0.16 | 54 | 1010.6 |
| 20260509215435 | 72 | 60 | 2.6 | 7.0 | 0.00 | 0.16 | 0.16 | 53 | 1010.7 |
| 20260509214933 | 73 | 44 | 0.9 | 2.6 | 0.00 | 0.16 | 0.16 | 55 | 1010.6 |
| 20260509214430 | 72 | 61 | 0.9 | 3.5 | 0.00 | 0.16 | 0.16 | 54 | 1010.7 |
| 20260509213927 | 72 | 51 | 3.5 | 3.5 | 0.00 | 0.16 | 0.16 | 54 | 1010.4 |
| 20260509213422 | 72 | 229 | 1.7 | 6.1 | 0.00 | 0.16 | 0.16 | 53 | 1010.5 |
| 20260509212920 | 71 | 197 | 0.9 | 5.2 | 0.00 | 0.16 | 0.16 | 53 | 1010.5 |
| 20260509212418 | 69 | 48 | 3.5 | 6.1 | 0.00 | 0.16 | 0.16 | 57 | 1010.3 |
| 20260509211914 | 70 | 68 | 3.5 | 8.7 | 0.00 | 0.16 | 0.16 | 55 | 1010.4 |
| 20260509211410 | 71 | 63 | 1.7 | 7.8 | 0.00 | 0.16 | 0.16 | 55 | 1010.6 |
| 20260509210906 | 71 | 228 | 0.9 | 2.6 | 0.00 | 0.16 | 0.16 | 56 | 1010.5 |
| 20260509210404 | 71 | 15 | 3.5 | 3.5 | 0.00 | 0.16 | 0.16 | 55 | 1010.6 |
| 20260509205903 | 71 | 234 | 0.9 | 2.6 | 0.00 | 0.16 | 0.16 | 57 | 1010.4 |
| 20260509205403 | 70 | 59 | 3.5 | 5.2 | 0.00 | 0.16 | 0.16 | 58 | 1010.6 |
| 20260509204900 | 70 | 7 | 3.5 | 3.5 | 0.00 | 0.16 | 0.16 | 55 | 1010.6 |
| 20260509204356 | 69 | 57 | 1.7 | 6.1 | 0.00 | 0.16 | 0.16 | 57 | 1010.5 |
| 20260509203853 | 70 | 67 | 2.6 | 7.0 | 0.00 | 0.16 | 0.16 | 58 | 1010.7 |
| 20260509203349 | 71 | 53 | 2.6 | 6.1 | 0.00 | 0.16 | 0.16 | 55 | 1010.6 |
| 20260509202846 | 71 | 214 | 0.9 | 2.6 | 0.00 | 0.16 | 0.16 | 57 | 1010.4 |
| 20260509202342 | 71 | 28 | 4.3 | 5.2 | 0.00 | 0.16 | 0.16 | 57 | 1010.7 |
| 20260509201837 | 69 | 71 | 2.6 | 5.2 | 0.00 | 0.16 | 0.16 | 59 | 1010.8 |
| 20260509201333 | 68 | 26 | 1.7 | 3.5 | 0.00 | 0.16 | 0.16 | 61 | 1011.0 |
| 20260509200830 | 67 | 31 | 2.6 | 3.5 | 0.00 | 0.16 | 0.16 | 64 | 1011.0 |
| 20260509200325 | 68 | 40 | 5.2 | 7.0 | 0.00 | 0.16 | 0.16 | 60 | 1011.0 |
| 20260509195822 | 67 | 43 | 2.6 | 6.1 | 0.00 | 0.16 | 0.16 | 61 | 1011.0 |
| 20260509195322 | 68 | 28 | 1.7 | 5.2 | 0.00 | 0.16 | 0.16 | 59 | 1011.0 |
| 20260509194822 | 67 | 44 | 2.6 | 3.5 | 0.00 | 0.16 | 0.16 | 62 | 1011.3 |
| 20260509194318 | 67 | 33 | 3.5 | 3.5 | 0.00 | 0.16 | 0.16 | 60 | 1011.3 |
| 20260509193815 | 68 | 107 | 3.5 | 7.8 | 0.00 | 0.16 | 0.16 | 63 | 1011.3 |
| 20260509193315 | 69 | 197 | 0.9 | 2.6 | 0.00 | 0.16 | 0.16 | 61 | 1011.3 |
| 20260509192811 | 68 | 47 | 1.7 | 2.6 | 0.00 | 0.16 | 0.16 | 63 | 1011.2 |
| 20260509192307 | 67 | 61 | 5.2 | 8.7 | 0.00 | 0.16 | 0.16 | 64 | 1011.3 |
| 20260509191802 | 69 | 41 | 4.3 | 7.8 | 0.00 | 0.16 | 0.16 | 58 | 1011.3 |
| 20260509191259 | 67 | 69 | 3.5 | 5.2 | 0.00 | 0.16 | 0.16 | 62 | 1011.2 |
| 20260509190755 | 68 | 97 | 6.1 | 7.0 | 0.00 | 0.16 | 0.16 | 61 | 1011.2 |
| 20260509190252 | 68 | 52 | 1.7 | 5.2 | 0.00 | 0.16 | 0.16 | 59 | 1011.2 |
| 20260509185749 | 68 | 232 | 1.7 | 6.1 | 0.00 | 0.16 | 0.16 | 60 | 1011.1 |
| 20260509185245 | 68 | 100 | 0.9 | 5.2 | 0.00 | 0.16 | 0.16 | 61 | 1011.2 |
| 20260509184743 | 67 | 67 | 0.9 | 1.7 | 0.00 | 0.16 | 0.16 | 63 | 1011.1 |
| 20260509184241 | 66 | 214 | 1.7 | 11.3 | 0.00 | 0.16 | 0.16 | 64 | 1011.3 |
| 20260509183737 | 66 | 183 | 0.9 | 5.2 | 0.00 | 0.16 | 0.16 | 64 | 1011.2 |
| 20260509183232 | 67 | 19 | 3.5 | 6.1 | 0.00 | 0.16 | 0.16 | 61 | 1011.1 |
| 20260509182727 | 66 | 112 | 0.9 | 3.5 | 0.00 | 0.16 | 0.16 | 64 | 1011.3 |
| 20260509182226 | 65 | 142 | 0.9 | 5.2 | 0.00 | 0.16 | 0.16 | 61 | 1011.3 |
| 20260509181723 | 65 | 33 | 1.7 | 2.6 | 0.00 | 0.16 | 0.16 | 65 | 1011.5 |
| 20260509181220 | 65 | 75 | 0.0 | 1.7 | 0.00 | 0.16 | 0.16 | 68 | 1011.5 |
| 20260509180717 | 65 | 65 | 0.9 | 3.5 | 0.00 | 0.16 | 0.16 | 67 | 1011.4 |
| 20260509180213 | 64 | 55 | 1.7 | 3.5 | 0.00 | 0.16 | 0.16 | 68 | 1011.3 |
| 20260509175710 | 64 | 65 | 0.0 | 1.7 | 0.00 | 0.16 | 0.16 | 68 | 1011.4 |
| 20260509175206 | 64 | 240 | 0.9 | 5.2 | 0.00 | 0.16 | 0.16 | 68 | 1011.2 |
| 20260509174702 | 64 | 20 | 0.0 | 1.7 | 0.00 | 0.16 | 0.16 | 69 | 1011.3 |
| 20260509174156 | 64 | 41 | 1.7 | 3.5 | 0.00 | 0.16 | 0.16 | 69 | 1011.1 |
| 20260509173653 | 64 | 187 | 0.0 | 1.7 | 0.00 | 0.16 | 0.16 | 73 | 1011.2 |
| 20260509173148 | 64 | 68 | 0.9 | 2.6 | 0.00 | 0.16 | 0.16 | 73 | 1011.0 |
| 20260509172645 | 63 | 38 | 0.9 | 2.6 | 0.00 | 0.16 | 0.16 | 74 | 1011.2 |
| 20260509172142 | 63 | 58 | 1.7 | 2.6 | 0.00 | 0.16 | 0.16 | 75 | 1011.1 |
| 20260509171637 | 62 | 211 | 0.0 | 1.7 | 0.00 | 0.16 | 0.16 | 78 | 1011.2 |
| 20260509171134 | 61 | 223 | 0.0 | 0.9 | 0.00 | 0.16 | 0.16 | 78 | 1011.2 |
| 20260509170631 | 61 | 133 | 0.9 | 1.7 | 0.00 | 0.16 | 0.16 | 83 | 1011.3 |
| 20260509170127 | 60 | 326 | 0.9 | 1.7 | 0.00 | 0.16 | 0.16 | 85 | 1011.3 |
| 20260509165625 | 59 | 247 | 0.9 | 1.7 | 0.00 | 0.16 | 0.16 | 88 | 1011.5 |
| 20260509165121 | 59 | 110 | 0.0 | 2.6 | 0.00 | 0.16 | 0.16 | 91 | 1011.4 |
| 20260509164617 | 58 | 298 | 0.0 | 2.6 | 0.00 | 0.16 | 0.16 | 93 | 1011.6 |
| 20260509164113 | 57 | 6 | 0.0 | 1.7 | 0.00 | 0.16 | 0.16 | 93 | 1011.6 |
| 20260509163611 | 57 | 249 | 0.0 | 1.7 | 0.00 | 0.16 | 0.16 | 94 | 1011.7 |
| 20260509163106 | 57 | 202 | 0.0 | 0.9 | 0.00 | 0.16 | 0.16 | 94 | 1011.8 |
| 20260509162603 | 56 | 287 | 0.0 | 1.7 | 0.00 | 0.16 | 0.16 | 94 | 1011.9 |
| 20260509162059 | 56 | 159 | 0.0 | 0.0 | 0.00 | 0.16 | 0.16 | 93 | 1011.9 |
| 20260509161556 | 57 | 41 | 1.7 | 2.6 | 0.00 | 0.16 | 0.16 | 93 | 1011.6 |
| 20260509161050 | 56 | 175 | 0.0 | 2.6 | 0.00 | 0.16 | 0.16 | 93 | 1011.8 |
| 20260509160547 | 56 | 80 | 0.0 | 0.0 | 0.00 | 0.16 | 0.16 | 93 | 1011.6 |
| 20260509160042 | 56 | 47 | 0.0 | 0.9 | 0.00 | 0.16 | 0.16 | 93 | 1011.5 |
| 20260509155538 | 56 | 234 | 0.0 | 0.0 | 0.00 | 0.16 | 0.16 | 93 | 1011.7 |
| 20260509155035 | 57 | 223 | 0.9 | 0.9 | 0.00 | 0.16 | 0.16 | 93 | 1011.7 |
| 20260509154531 | 57 | 177 | 0.0 | 0.0 | 0.00 | 0.16 | 0.16 | 93 | 1011.6 |
| 20260509154029 | 57 | 98 | 0.0 | 0.9 | 0.00 | 0.16 | 0.16 | 93 | 1011.6 |
| 20260509153525 | 57 | 268 | 0.0 | 0.0 | 0.00 | 0.16 | 0.16 | 93 | 1011.7 |
| 20260509153022 | 57 | 133 | 0.0 | 0.0 | 0.00 | 0.16 | 0.16 | 92 | 1011.5 |
| 20260509152518 | 57 | 145 | 0.0 | 0.0 | 0.00 | 0.16 | 0.16 | 92 | 1011.5 |
| 20260509152015 | 57 | 131 | 0.0 | 0.0 | 0.00 | 0.16 | 0.16 | 93 | 1011.7 |
| 20260509151511 | 57 | 180 | 0.0 | 0.9 | 0.00 | 0.16 | 0.16 | 93 | 1011.7 |
| 20260509151010 | 57 | 92 | 0.0 | 0.0 | 0.00 | 0.16 | 0.16 | 94 | 1011.6 |
| 20260509150506 | 57 | 62 | 0.0 | 0.9 | 0.00 | 0.16 | 0.16 | 95 | 1011.4 |
| 20260509150005 | 56 | 252 | 1.7 | 2.6 | 0.00 | 0.16 | 0.16 | 95 | 1011.3 |
| 20260509145500 | 56 | 249 | 1.7 | 2.6 | 0.00 | 0.16 | 0.16 | 95 | 1011.6 |
| 20260509144955 | 56 | 253 | 1.7 | 2.6 | 0.00 | 0.16 | 0.16 | 96 | 1011.7 |
| 20260509144453 | 56 | 150 | 0.0 | 0.0 | 0.00 | 0.16 | 0.16 | 97 | 1011.6 |
| 20260509143950 | 56 | 194 | 0.0 | 0.0 | 0.00 | 0.16 | 0.16 | 97 | 1011.6 |
| 20260509143447 | 56 | 237 | 1.7 | 1.7 | 0.00 | 0.16 | 0.16 | 97 | 1011.3 |
| 20260509142943 | 56 | 274 | 0.0 | 0.9 | 0.00 | 0.16 | 0.16 | 98 | 1011.7 |
| 20260509142440 | 55 | 248 | 1.7 | 2.6 | 0.00 | 0.16 | 0.16 | 98 | 1011.6 |
| 20260509141935 | 55 | 237 | 0.0 | 0.0 | 0.05 | 0.16 | 0.16 | 98 | 1011.6 |
| 20260509141432 | 55 | 237 | 0.0 | 0.0 | 0.05 | 0.16 | 0.16 | 98 | 1012.1 |
| 20260509140929 | 54 | 237 | 0.0 | 0.9 | 0.00 | 0.15 | 0.15 | 98 | 1012.0 |
| 20260509140425 | 54 | 237 | 0.0 | 0.0 | 0.00 | 0.15 | 0.15 | 98 | 1011.9 |
| 20260509135924 | 54 | 237 | 0.9 | 0.9 | 0.00 | 0.15 | 0.15 | 99 | 1011.8 |
| 20260509135421 | 54 | 235 | 0.0 | 0.0 | 0.00 | 0.15 | 0.15 | 99 | 1011.9 |
| 20260509134918 | 53 | 235 | 0.0 | 0.0 | 0.00 | 0.15 | 0.15 | 99 | 1011.8 |
| 20260509134415 | 53 | 235 | 0.0 | 0.0 | 0.00 | 0.15 | 0.15 | 99 | 1011.9 |
| 20260509133913 | 54 | 235 | 0.0 | 0.0 | 0.07 | 0.15 | 0.15 | 99 | 1011.9 |
| 20260509133409 | 54 | 235 | 0.0 | 0.0 | 0.07 | 0.15 | 0.15 | 99 | 1012.1 |
| 20260509132908 | 53 | 235 | 0.0 | 0.0 | 0.00 | 0.14 | 0.14 | 99 | 1011.8 |